Location: *
(39.6167°S, 171.5333°W)
Time: 06:18:35
(UTC+00:00)

Cosmos 405 Rocket - Pass Details

Date: 13 May 2021
Orbit: 488 x 553 km, 81.3° (Epoch: 16 June)

Event Time Altitude Azimuth Distance (km) Brightness Sun altitude
Exits shadow 16:23:04 22° 177° (S) 1,244 4.6 -23.0°
Maximum altitude 16:25:33 62° 101° (E) 627 3.2 -22.5°
Drops below altitude 10° 16:29:35 10° 19° (NNE) 1,836 5.8 -21.7°
Sets 16:31:46 0° 15° (NNE) 2,725 6.7 -21.3°
